EDT,Max TemperatureF,Mean TemperatureF,Min TemperatureF,Max Dew PointF,MeanDew PointF,Min DewpointF,Max Humidity, Mean Humidity, Min Humidity, Max Sea Level PressureIn, Mean Sea Level PressureIn, Min Sea Level PressureIn, Max VisibilityMiles, Mean VisibilityMiles, Min VisibilityMiles, Max Wind SpeedMPH, Mean Wind SpeedMPH, Max Gust SpeedMPH,PrecipitationIn, CloudCover, Events, WindDirDegrees
2013-6-1,89,78,66,66,63,60,87,65,43,30.02,29.95,29.83,10,10,10,14,6,22,0.00,3,,194
2013-6-2,79,72,64,66,63,59,93,73,52,29.95,29.89,29.84,10,9,1,18,5,30,0.33,6,Rain-Thunderstorm,217
2013-6-3,76,69,61,64,61,55,100,77,54,30.03,29.94,29.88,10,6,0,13,4,17,0.06,6,Fog-Rain,299
2013-6-4,77,66,54,56,53,48,93,66,38,30.13,30.08,30.04,10,8,0,9,2,18,0.00,2,Fog,39
2013-6-5,87,71,54,66,58,51,93,66,39,30.08,29.99,29.87,10,9,0,17,3,24,0.77,4,Fog-Rain-Thunderstorm,178
2013-6-6,79,72,65,68,65,62,93,80,67,29.93,29.81,29.75,10,6,1,18,3,26,0.89,7,Rain-Thunderstorm,158
2013-6-7,70,65,59,66,62,56,93,80,66,29.88,29.78,29.74,10,4,1,12,3,16,T,7,Rain,330
2013-6-8,80,69,58,62,58,55,100,73,45,30.08,29.97,29.88,10,7,0,7,1,14,0.00,3,Fog,354
2013-6-9,86,73,59,68,62,56,97,69,40,30.11,30.06,29.98,10,6,0,25,2,33,0.56,4,Fog-Rain-Thunderstorm,149
2013-6-10,75,70,64,67,64,59,93,79,64,29.99,29.88,29.83,10,7,3,22,4,33,0.48,7,Rain,195
2013-6-11,82,74,65,65,63,61,93,74,54,29.98,29.93,29.88,10,10,4,16,8,21,T,5,Rain-Thunderstorm,241
2013-6-12,89,78,66,73,69,63,93,75,56,29.97,29.90,29.80,10,10,7,13,4,33,T,3,,229
2013-6-13,81,72,62,70,65,59,90,76,62,29.85,29.73,29.62,10,9,0,31,10,44,0.80,6,Fog-Rain-Thunderstorm,265
2013-6-14,79,68,56,60,57,55,93,69,45,30.06,29.96,29.87,10,7,0,13,3,16,0.00,3,Fog,319
2013-6-15,81,69,56,60,56,53,100,70,39,30.15,30.08,30.03,10,7,0,10,2,16,0.00,2,Fog,222
2013-6-16,80,70,60,67,63,58,90,74,58,30.04,30.01,29.99,10,9,5,10,4,,0.07,5,Rain,248
2013-6-17,86,75,64,70,66,63,93,72,51,30.01,29.96,29.89,10,8,4,9,1,13,0.00,6,,242
2013-6-18,78,72,65,68,64,62,93,79,64,29.95,29.90,29.85,10,6,1,21,3,29,1.12,6,Rain-Thunderstorm,255
2013-6-19,79,71,62,64,62,59,93,73,52,30.12,30.03,29.94,10,6,1,5,1,,0.00,5,,347
2013-6-20,85,72,58,65,59,55,97,69,40,30.23,30.17,30.13,10,6,0,8,1,8,0.00,3,Fog,343
2013-6-21,88,75,61,67,63,58,97,69,40,30.23,30.19,30.14,10,9,6,8,1,15,0.00,1,,32
2013-6-22,88,77,65,68,65,62,93,68,43,30.22,30.15,30.08,10,10,6,10,2,14,0.00,2,,179
2013-6-23,89,77,65,67,64,60,93,67,40,30.18,30.12,30.07,10,9,1,8,2,8,0.00,3,,216
2013-6-24,88,78,67,72,67,64,93,70,46,30.17,30.11,30.04,10,9,4,12,2,15,0.00,3,Thunderstorm,233
2013-6-25,88,80,71,69,67,65,90,68,46,30.10,30.04,29.95,10,10,7,12,5,17,0.00,4,,227
2013-6-26,85,76,67,71,68,64,90,75,59,29.98,29.92,29.83,10,8,5,20,5,31,0.20,5,Rain-Thunderstorm,215
2013-6-27,79,73,67,70,67,64,93,84,74,29.85,29.77,29.71,10,7,2,9,7,21,1.27,7,Rain,229
2013-6-28,85,76,66,70,66,60,87,66,44,29.71,29.64,29.55,10,8,2,20,10,29,0.40,5,Rain-Thunderstorm,243
2013-6-29,81,71,61,65,63,60,100,77,54,29.69,29.63,29.59,10,8,0,16,4,22,0.17,4,Fog-Rain-Thunderstorm,224
2013-6-30,86,75,64,68,64,62,93,71,48,29.79,29.73,29.68,10,6,0,14,3,20,0.00,4,Fog,336